Wind_Speed
5 10 15 13 21 15 9 6 5 9 9 6 8 3 1 5 8 9 10 9 9 8 6 3 1 3 4 3 3 3 3 3 3 3 4 7 11 12 11 13 14 15 15 14
8 9 16 24 20 18 14 9 4 8 14 10 11 7 3 1 2 3 7 9 7 6 6 6 5 1 6 9 8 6 6 6 4 5 9 10 10 12 12 13 16 17 18 15
8 9 15 19 19 18 16 11 12 10 6 8 11 8 9 7 5 3 10 10 10 7 5 5 5 4 3 2 5 7 7 7 7 7 9 13 15 14 11 12 15 20 22 19
11 12 11 10 10 17 19 15 20 13 9 6 10 3 7 10 9 6 7 11 10 11 8 7 6 5 1 1 1 5 6 5 5 4 4 4 7 7 3 4 7 8 13 18
15 13 12 11 12 11 14 22 22 19 14 11 12 7 5 14 13 12 7 10 13 13 15 10 9 4 4 1 3 2 2 5 5 4 3 4 4 3 1 2 3 5 9 15
11 10 12 13 12 12 11 13 19 20 17 14 14 16 10 21 18 15 11 9 15 12 15 14 12 8 6 4 3 3 2 3 5 4 2 2 1 1 2 2 4 4 5 13
10 10 10 13 9 12 11 6 8 12 13 13 22 21 13 25 21 23 18 14 15 10 14 16 16 11 8 7 4 5 4 7 8 6 4 3 4 6 5 4 3 2 2 9
2 5 10 11 13 14 12 11 9 13 11 13 22 18 14 19 17 22 26 17 18 13 11 16 15 10 10 10 8 6 9 11 11 9 7 5 4 6 8 6 6 6 5 10
2 7 11 13 15 16 14 11 18 15 17 18 14 18 11 19 14 13 20 19 16 13 14 18 14 12 10 10 11 11 9 13 14 13 12 10 10 9 7 10 8 7 7 9
9 4 14 18 17 14 17 19 15 12 12 15 11 14 10 19 18 11 9 13 13 16 17 19 19 19 17 10 9 10 12 10 11 12 14 14 15 14 11 11 12 10 9 8
14 14 14 19 21 19 18 13 16 16 15 11 11 12 19 14 10 10 10 11 14 20 20 20 19 23 22 14 10 11 12 15 15 16 17 16 15 14 14 12 12 11 11 10
15 18 20 21 16 14 14 14 13 14 12 15 15 16 19 16 8 9 15 12 18 29 23 17 17 22 21 18 14 14 15 16 16 14 12 14 14 13 12 11 11 11 13 13
11 15 16 16 17 12 11 11 12 12 13 17 15 15 19 14 13 10 11 16 21 22 16 18 21 20 23 21 20 17 16 17 15 14 12 10 10 12 12 11 10 12 14 16
11 13 16 16 20 18 15 13 12 13 14 11 15 18 24 24 22 17 13 10 13 20 22 23 23 22 18 23 25 25 24 19 15 13 12 12 11 11 10 7 9 13 14 15
15 15 16 19 21 20 19 16 15 14 14 16 12 18 22 25 25 23 16 17 20 23 28 21 19 21 23 27 32 31 35 25 17 16 16 17 16 14 12 12 11 13 14 14
15 16 15 16 19 21 21 19 19 17 16 15 14 12 15 20 23 23 23 25 25 26 20 19 20 22 26 32 37 48 29 44 22 19 22 23 20 18 18 19 20 21 23 24
18 18 17 15 17 22 21 20 21 19 19 17 17 18 17 16 19 23 28 32 30 28 26 25 27 29 31 36 42 42 43 38 42 25 27 27 30 24 23 27 28 28 29 31
19 19 19 17 18 21 21 20 20 19 19 19 19 21 20 18 17 17 23 29 35 35 36 35 34 34 36 40 45 40 36 26 23 31 30 33 34 34 32 32 34 36 38 39
19 19 20 19 19 20 20 19 21 20 20 20 20 21 22 23 20 20 22 24 29 37 42 42 38 39 41 42 46 46 42 41 43 46 45 43 43 39 37 38 43 43 40 44
20 20 20 20 20 22 25 20 23 23 20 23 22 23 23 23 23 26 25 25 28 29 31 35 41 44 44 44 46 50 50 48 48 49 48 44 45 46 47 51 50 51 54 54
24 24 22 24 24 25 26 25 26 27 28 29 26 27 26 25 28 31 30 29 29 31 32 35 35 36 41 48 53 55 56 58 57 55 54 51 54 55 55 54 53 50 49 46
27 29 29 27 28 29 25 29 31 34 34 31 31 32 33 33 34 35 36 35 36 36 36 37 40 41 42 43 45 49 51 54 56 56 54 51 50 47 46 44 42 41 41 41
29 30 32 30 33 33 32 31 32 33 36 36 36 37 38 38 37 38 39 40 42 42 42 43 43 43 44 44 46 50 52 52 52 49 47 46 44 42 40 40 40 41 41 39
32 32 34 37 32 37 35 36 36 37 37 35 38 41 42 43 43 43 42 44 46 48 48 48 49 50 50 49 50 50 51 52 52 52 51 51 49 47 45 42 45 46 43 40
34 33 38 38 35 40 37 40 42 44 44 43 43 43 43 45 47 49 50 50 50 51 51 53 52 52 54 54 54 54 54 53 52 52 51 50 49 48 47 46 45 47 46 42
32 38 41 41 39 41 37 43 46 48 47 48 49 48 48 49 50 51 52 53 53 54 54 54 54 54 55 55 55 55 54 54 54 54 53 52 52 52 51 49 47 46 46 45
Wind_Direction
196 190 202 235 222 221 209 194 198 265 222 199 186 216 189 29 40 30 11 29 15 22 37 47 266 238 212 170 153 198 179 175 187 192 229 226 229 237 239 245 249 238 233 239
236 186 213 224 224 223 218 220 286 234 232 214 205 217 182 119 71 1 329 7 18 11 355 22 35 338 246 236 222 203 202 200 223 246 246 238 228 232 245 253 258 252 240 231
231 225 217 221 229 228 215 241 252 214 238 231 231 215 221 218 225 309 317 309 352 352 356 352 354 9 357 268 210 195 194 211 206 225 237 240 233 235 253 259 265 254 243 235
242 238 232 240 235 234 229 239 227 217 191 263 264 194 274 249 245 256 334 313 308 330 332 330 348 329 353 78 109 142 151 155 153 147 140 166 188 196 219 258 268 269 235 230
251 256 260 251 245 243 239 235 231 227 227 268 294 266 250 285 245 253 274 321 304 305 320 308 312 324 297 221 144 121 135 153 157 152 155 146 163 193 228 326 285 283 247 220
262 256 262 264 268 259 260 239 243 252 250 265 266 269 252 271 244 250 265 281 289 293 312 316 293 294 287 287 229 151 163 175 184 188 179 171 218 266 283 287 284 286 247 199
257 254 255 258 277 278 273 271 264 270 263 269 267 270 267 271 250 238 245 263 272 294 304 323 298 297 290 268 266 224 195 204 201 216 222 235 274 277 283 263 269 258 243 200
188 293 248 260 256 252 268 245 233 263 264 264 269 280 279 281 274 245 234 251 261 276 283 305 298 311 288 288 258 250 223 209 217 227 233 244 277 288 275 269 239 228 213 195
267 261 266 262 260 258 259 273 247 265 278 271 261 276 306 294 287 262 234 237 248 260 267 289 298 301 306 299 284 268 256 226 222 229 236 250 271 280 277 256 247 240 229 225
256 241 273 274 279 286 268 268 270 292 272 269 263 270 265 286 292 278 215 226 246 240 259 283 298 303 305 285 279 268 254 245 239 240 246 257 270 272 267 253 251 259 248 241
245 256 277 292 289 291 301 290 270 257 258 253 260 277 269 298 288 242 228 253 229 233 250 269 287 294 291 268 263 247 247 243 241 245 250 254 257 264 261 252 244 249 250 260
252 259 271 282 293 292 297 289 270 253 270 267 239 252 270 277 271 226 232 235 231 226 236 262 288 287 286 272 274 267 261 253 245 245 252 255 251 249 255 254 253 252 256 271
265 265 275 291 298 292 301 296 281 266 256 252 251 264 269 263 264 246 227 223 244 268 226 253 266 286 277 272 268 264 257 254 256 253 255 261 264 262 264 264 255 261 275 286
277 273 272 265 270 283 288 287 288 283 259 261 265 234 262 262 272 268 253 228 238 241 246 249 254 262 270 261 264 261 245 245 246 245 253 245 240 252 256 283 294 282 278 282
281 277 276 276 283 285 284 280 278 281 282 270 240 259 243 259 261 263 245 231 231 223 223 227 245 249 265 263 257 251 243 225 232 238 242 237 236 240 268 264 277 286 290 285
281 281 273 269 271 275 275 283 282 281 278 283 280 273 248 249 249 245 237 238 238 246 247 243 248 246 253 250 250 262 247 226 193 231 240 243 239 256 264 260 264 278 278 277
288 285 280 276 272 271 280 277 279 280 282 276 274 273 268 261 248 245 242 240 234 240 244 245 244 242 244 257 259 264 276 276 219 223 241 249 244 257 262 267 267 269 273 277
279 279 282 282 279 278 276 275 275 276 273 270 269 270 269 262 257 251 245 241 236 236 239 242 241 242 248 254 265 272 280 285 272 263 260 264 273 267 271 269 272 273 278 281
277 277 275 275 273 274 283 273 273 272 269 267 266 265 266 267 265 259 249 247 245 243 245 248 247 243 244 249 257 261 257 255 256 261 263 264 261 262 272 271 269 268 272 274
273 273 275 276 275 276 274 277 273 269 271 261 260 261 261 262 266 266 258 254 251 250 250 250 248 246 246 248 251 257 265 262 261 263 264 264 265 264 266 264 262 264 264 262
276 273 273 272 271 271 274 273 272 272 259 267 267 266 265 261 257 262 268 267 263 259 255 254 253 250 249 250 249 251 251 254 261 260 261 260 262 263 265 268 271 271 270 272
277 280 280 276 277 272 276 271 268 273 274 271 269 267 264 263 263 261 263 263 263 262 260 257 257 259 260 258 257 258 259 260 261 262 264 265 266 267 268 266 269 270 274 276
276 278 277 279 279 282 279 278 279 275 276 277 276 274 272 269 265 262 260 260 261 263 263 262 262 262 262 261 261 262 263 264 265 267 269 269 270 270 270 273 268 267 271 274
277 278 279 279 281 281 285 288 287 286 282 277 272 269 269 267 266 265 261 258 256 257 258 259 260 261 260 260 262 261 262 263 265 267 269 270 270 271 268 268 268 269 270 274
279 280 275 279 279 281 289 290 290 288 287 285 281 278 274 271 269 269 268 266 262 258 256 256 256 257 259 259 259 260 261 262 262 262 264 266 267 268 267 266 264 265 267 267
276 271 275 277 281 286 288 284 287 287 287 285 283 281 278 275 271 268 266 264 263 262 260 259 260 260 260 260 261 261 261 259 258 260 261 263 265 267 268 268 268 269 267 268
Height
5916 5919 5922 5924 5921 5923 5924 5925 5926 5926 5925 5926 5926 5926 5924 5923 5920 5918 5916 5915 5914 5913 5912 5912 5912 5912 5912 5911 5909 5909 5909 5910 5911 5912 5913 5914 5916 5918 5920 5921 5923 5924 5926 5926
5913 5916 5916 5916 5919 5921 5923 5924 5926 5924 5924 5925 5926 5927 5926 5924 5922 5919 5917 5916 5916 5915 5914 5913 5913 5912 5912 5911 5910 5909 5909 5910 5911 5911 5912 5914 5915 5916 5917 5919 5919 5920 5923 5924
5910 5913 5913 5914 5915 5917 5920 5923 5922 5922 5922 5925 5925 5927 5926 5924 5922 5921 5919 5917 5916 5916 5916 5914 5913 5912 5911 5910 5910 5909 5909 5910 5911 5911 5911 5911 5913 5915 5916 5916 5915 5916 5917 5919
5908 5908 5910 5911 5913 5914 5916 5919 5918 5920 5921 5926 5922 5924 5926 5924 5923 5922 5921 5917 5917 5917 5917 5915 5913 5912 5911 5911 5910 5909 5909 5910 5911 5911 5910 5911 5913 5915 5914 5914 5913 5912 5912 5915
5906 5905 5906 5908 5910 5911 5912 5911 5915 5917 5918 5922 5924 5924 5928 5922 5922 5921 5920 5917 5916 5916 5916 5915 5913 5912 5911 5910 5909 5909 5909 5909 5910 5911 5911 5912 5914 5914 5913 5912 5911 5910 5910 5911
5903 5903 5904 5905 5906 5907 5909 5910 5912 5914 5917 5920 5923 5921 5924 5919 5918 5919 5918 5916 5914 5915 5915 5914 5912 5911 5910 5910 5908 5907 5908 5909 5910 5912 5912 5913 5914 5914 5914 5913 5912 5910 5909 5910
5901 5901 5902 5902 5904 5904 5905 5910 5915 5917 5917 5919 5916 5916 5919 5911 5914 5914 5915 5914 5911 5913 5914 5914 5911 5911 5909 5908 5908 5907 5908 5909 5910 5912 5912 5913 5914 5914 5914 5913 5912 5911 5910 5911
5904 5902 5900 5901 5901 5902 5903 5906 5911 5913 5915 5916 5912 5912 5915 5908 5907 5908 5910 5910 5908 5910 5911 5912 5910 5910 5910 5910 5908 5908 5908 5908 5910 5911 5913 5913 5914 5914 5914 5913 5912 5912 5912 5913
5902 5901 5898 5898 5898 5900 5902 5903 5903 5905 5908 5908 5910 5909 5907 5904 5903 5903 5905 5906 5906 5907 5907 5909 5909 5909 5909 5909 5910 5909 5909 5908 5909 5911 5912 5913 5913 5914 5913 5913 5913 5913 5913 5913
5898 5901 5896 5894 5895 5897 5897 5898 5901 5903 5904 5905 5907 5905 5906 5902 5899 5899 5900 5902 5903 5905 5905 5906 5906 5907 5908 5908 5908 5908 5909 5909 5910 5910 5911 5911 5912 5912 5912 5912 5913 5913 5913 5913
5896 5897 5898 5894 5893 5893 5893 5894 5894 5897 5899 5901 5903 5905 5899 5899 5897 5897 5898 5900 5901 5901 5902 5903 5903 5902 5903 5905 5905 5905 5905 5906 5907 5907 5908 5908 5909 5910 5910 5910 5911 5912 5913 5913
5894 5893 5892 5891 5890 5889 5888 5888 5889 5892 5898 5895 5897 5900 5895 5895 5895 5894 5896 5898 5898 5897 5897 5899 5901 5901 5901 5902 5903 5904 5904 5904 5906 5906 5906 5906 5907 5907 5907 5907 5908 5909 5911 5912
5891 5891 5890 5890 5887 5887 5886 5885 5884 5885 5887 5890 5892 5897 5890 5891 5892 5891 5892 5893 5894 5882 5888 5895 5898 5899 5898 5899 5900 5900 5901 5901 5903 5904 5905 5905 5905 5905 5905 5904 5904 5905 5906 5908
5886 5885 5885 5886 5884 5884 5883 5883 5882 5881 5883 5887 5886 5890 5885 5886 5886 5887 5888 5889 5890 5889 5890 5893 5893 5894 5894 5894 5893 5894 5895 5897 5898 5899 5901 5901 5901 5902 5902 5902 5902 5903 5903 5904
5882 5881 5881 5879 5878 5878 5877 5879 5879 5878 5878 5878 5880 5879 5879 5878 5880 5881 5883 5884 5884 5884 5886 5887 5888 5888 5888 5887 5886 5886 5886 5890 5892 5896 5897 5896 5896 5897 5897 5898 5899 5900 5901 5900
5876 5876 5876 5875 5874 5873 5872 5873 5872 5873 5873 5872 5872 5873 5872 5872 5873 5875 5876 5877 5878 5879 5882 5882 5883 5883 5883 5880 5879 5869 5863 5878 5866 5889 5893 5892 5893 5893 5893 5893 5893 5894 5895 5895
5870 5869 5869 5870 5869 5868 5869 5868 5867 5868 5867 5867 5866 5866 5866 5866 5866 5866 5868 5869 5871 5872 5873 5875 5876 5877 5877 5873 5870 5873 5870 5860 5865 5875 5884 5886 5886 5887 5886 5887 5887 5887 5886 5887
5865 5864 5863 5863 5862 5862 5862 5862 5862 5862 5861 5860 5860 5860 5859 5859 5859 5860 5860 5860 5862 5863 5864 5867 5868 5869 5869 5866 5861 5862 5861 5862 5866 5871 5872 5878 5879 5879 5877 5879 5880 5878 5877 5878
5858 5858 5857 5857 5857 5856 5855 5854 5855 5855 5856 5855 5855 5854 5853 5853 5853 5853 5852 5852 5853 5854 5855 5856 5859 5860 5860 5859 5854 5857 5863 5865 5867 5867 5868 5869 5870 5870 5870 5870 5870 5870 5869 5869
5853 5851 5852 5851 5851 5850 5846 5848 5846 5847 5849 5847 5847 5847 5847 5847 5847 5842 5844 5845 5845 5845 5845 5845 5847 5848 5850 5850 5849 5846 5844 5848 5852 5854 5855 5857 5856 5858 5859 5860 5859 5858 5858 5857
5845 5844 5845 5844 5844 5843 5840 5841 5839 5839 5841 5837 5838 5838 5838 5839 5838 5835 5835 5835 5835 5836 5836 5836 5836 5837 5838 5838 5838 5837 5836 5836 5837 5838 5840 5844 5845 5846 5846 5845 5843 5842 5842 5842
5839 5836 5835 5836 5835 5834 5834 5833 5832 5829 5829 5830 5829 5828 5828 5828 5827 5826 5826 5824 5823 5823 5823 5824 5825 5825 5826 5826 5825 5824 5823 5823 5823 5824 5825 5826 5829 5830 5830 5829 5828 5828 5830 5831
5830 5829 5826 5828 5825 5823 5823 5823 5823 5822 5821 5820 5820 5818 5817 5816 5815 5814 5814 5814 5812 5811 5811 5811 5812 5812 5811 5813 5812 5810 5809 5809 5810 5810 5811 5812 5812 5813 5815 5815 5817 5820 5820 5820
5820 5819 5817 5814 5818 5811 5812 5811 5809 5808 5808 5809 5807 5804 5803 5802 5801 5801 5801 5799 5799 5798 5798 5797 5798 5797 5796 5798 5797 5797 5797 5795 5796 5797 5798 5799 5800 5801 5803 5805 5805 5806 5807 5806
5810 5809 5804 5804 5806 5800 5804 5799 5797 5794 5794 5793 5791 5789 5789 5787 5786 5785 5784 5783 5782 5782 5782 5782 5782 5782 5780 5781 5781 5781 5782 5784 5784 5785 5785 5785 5785 5787 5789 5790 5792 5792 5793 5796
5802 5796 5794 5793 5793 5791 5794 5788 5785 5781 5780 5777 5775 5773 5771 5769 5767 5766 5765 5764 5764 5763 5764 5764 5764 5764 5764 5764 5764 5765 5766 5767 5769 5770 5771 5772 5772 5772 5773 5775 5777 5779 5781 5783